Tracking 19644 objects as of 25-Apr-2019
HD Live streaming from Space Station
objects crossing your sky now

THORAD AGENA D DEB

Track THORAD AGENA D DEB now!
10-day predictions


NORAD ID: 4992
Int'l Code: 1970-025HN
Perigee: 1,031.7 km
Apogee: 1,053.7 km
Inclination: 99.9 °
Period: 105.9 minutes
Semi major axis: 7413 km
RCS: 0.0685 m2 (small)
Launch date: April 8, 1970
Source: United States (US)
Launch site: AIR FORCE WESTERN TEST RANGE (AFWTR)

Note: This is SATELLITE DEBRIS
aabbcc
Your satellite tracking list
Your tracking list is empty




NASA's NSSDC Master Catalog

Two Line Element Set (TLE):
1  4992U 70025HN  19115.18208959  .00000098  00000-0  19316-3 0  9997
2  4992  99.9383 218.7232 0014819  30.6024  32.8633 13.60041497428497
Source of the keplerian elements: AFSPC